This is the latest recevied weather packets stored in our database for station/object W1LBM. If no packets are shown the sender has not sent any weather packets the latest 10 day(s).
| Time | Temp. | Humidity | Pressure | Rain* | Wind** | Luminosity | Snow |
|---|---|---|---|---|---|---|---|
| 1777719898 | 8.89° C | 81% | 1014.9 hPa | 0 mm | - | 29 W/m² | - |
| 1777719595 | 8.89° C | 81% | 1015 hPa | 0 mm | - | 48 W/m² | - |
| 1777719293 | 8.89° C | 81% | 1015.1 hPa | 0 mm | - | 37 W/m² | - |
| 1777718990 | 8.89° C | 81% | 1014.8 hPa | 0 mm | - | 38 W/m² | - |
| 1777718687 | 8.89° C | 81% | 1015 hPa | 0 mm | - | 27 W/m² | - |
| 1777718385 | 8.89° C | 81% | 1015.1 hPa | 0 mm | - | 20 W/m² | - |
| 1777718082 | 8.89° C | 81% | 1014.8 hPa | 0 mm | - | 16 W/m² | - |
| 1777717779 | 8.89° C | 81% | 1014.9 hPa | 0 mm | - | 9 W/m² | - |
| 1777717476 | 8.89° C | 80% | 1014.9 hPa | 0 mm | - | 10 W/m² | - |
| 1777717173 | 8.89° C | 80% | 1014.8 hPa | 0 mm | - | 6 W/m² | - |
| 1777716871 | 8.89° C | 80% | 1014.7 hPa | 0 mm | - | 5 W/m² | - |
| 1777716569 | 8.89° C | 80% | 1014.7 hPa | 0 mm | - | 4 W/m² | - |
| 1777716268 | 8.33° C | 80% | 1014.4 hPa | 0 mm | - | 3 W/m² | - |
| 1777715965 | 8.33° C | 81% | 1014.5 hPa | 0 mm | - | 2 W/m² | - |
| 1777715662 | 8.33° C | 81% | 1014.6 hPa | 0 mm | - | 2 W/m² | - |
| 1777715360 | 8.33° C | 81% | 1014.6 hPa | 0 mm | - | 4 W/m² | - |
| 1777715057 | 8.33° C | 81% | 1014.5 hPa | 0 mm | - | 2 W/m² | - |
| 1777714755 | 8.33° C | 81% | 1014.4 hPa | 0 mm | - | 1 W/m² | - |
| 1777714454 | 8.33° C | 81% | 1014.7 hPa | 0 mm | - | 1 W/m² | - |
| 1777714151 | 8.33° C | 81% | 1014.7 hPa | 0 mm | - | 0 W/m² | - |
| 1777713849 | 8.33° C | 80% | 1014.6 hPa | 0 mm | - | 0 W/m² | - |
| 1777713546 | 8.33° C | 81% | 1014.5 hPa | 0 mm | - | 0 W/m² | - |
| 1777713242 | 8.33° C | 81% | 1014.5 hPa | 0 mm | - | 0 W/m² | - |
| 1777712939 | 8.33° C | 81% | 1014.2 hPa | 0 mm | - | 0 W/m² | - |
| 1777712636 | 8.33° C | 81% | 1014.5 hPa | 0 mm | - | 0 W/m² | - |
* Rain latest hour (hover to see other rain measurements)
** Current wind speed in m/s (hover to see current wind gust speed)